Location: Praha
(50.0830°N, 14.4670°E)
Time: 10:34:49
(UTC+02:00)

ISS - Pass Details

Date: 18 May 2019
Orbit: 407 x 410 km, 51.6° (Epoch: 21 May)

Event Time Altitude Azimuth Distance (km) Brightness Sun altitude
Exits shadow 01:20:43 - 275° (W) 1,802 -0.5 -20.3°
Reaches altitude 10° 01:21:31 10° 277° (W) 1,474 -1.0 -20.3°
Maximum altitude 01:24:49 64° 360° (N) 459 -3.4 -20.2°
Drops below altitude 10° 01:28:06 10° 83° (E) 1,476 -0.8 -20.2°
Sets 01:30:12 0° 86° (E) 2,337 0.2 -20.1°
